Preview of NWS' New Version of Forecast
This preview is not operational and should not be used for support decisions.

Regional Weather Roundup (RWR)

Issued by National Weather Service (NWS)

                            
000
ASUS45 KCYS 220210
RWRWY 

WYOMING REGIONAL WEATHER ROUNDUP
NATIONAL WEATHER SERVICE CHEYENNE WY
700 PM MST THU FEB 21 2019

NOTE:  "FAIR" INDICATES FEW OR NO CLOUDS BELOW 12,000 FEET
WITH NO SIGNIFICANT WEATHER AND/OR OBSTRUCTIONS TO VISIBILITY.

WYZ001-220300-
...YELLOWSTONE NATIONAL PARK...
  
CITY           SKY/WX    TMP DP  RH WIND       PRES   REMARKS
LK YELLOWSTONE   N/A     -3  -8  79 CALM      29.74R                  
W YELLOWSTONE  NOT AVBL                                               

$$
WYZ002>013-054>058-071-098>099-220300-
...NORTHERN WYOMING...
  
CITY           SKY/WX    TMP DP  RH WIND       PRES   REMARKS
JACKSON        CLEAR      6  -1  73 VRB3      29.75R                  
CODY           CLEAR      7   3  84 NE6       29.95R WCI  -3          
GREYBULL       PTCLDY    15   7  70 NW8       29.99R WCI   4          
WORLAND        CLOUDY    16  10  77 NE3       29.98R                  
SHERIDAN       LGT SNOW  16  12  84 W7        30.04R FOG     WCI   6  
BUFFALO        CLOUDY    12   9  87 W5        29.98R WCI   4          
GILLETTE       CLOUDY    14  11  87 NE5       30.02R WCI   6          
HULETT         FAIR      12   9  85 MISG      30.05R                  
NEWCASTLE        N/A     16  10  79 CALM      30.02R                  

$$
WYZ014>020-022>026-101>103-220300-
...CENTRAL WYOMING...
  
CITY           SKY/WX    TMP DP  RH WIND       PRES   REMARKS
BIG PINEY      MOCLDY     4  -2  76 N10       29.72R WCI -11          
PINEDALE       PTCLDY     1  -4  78 NW6       29.73R WCI -10          
DUBOIS         FLURRIES   9   5  85 E12       29.77R WCI  -6          
LANDER         CLOUDY    13  10  88 CALM      29.88R                  
RIVERTON       PTCLDY    11   5  77 NE6       29.89R WCI   1          
CASPER         LGT SNOW  16  12  84 NE10      29.90R FOG     WCI   4  
DOUGLAS        CLOUDY    16  13  88 E13       29.94R WCI   2          

$$
WYZ021-027>030-104>119-220300-
...SOUTHERN WYOMING...
  
CITY           SKY/WX    TMP DP  RH WIND       PRES   REMARKS
EVANSTON       CLOUDY    12   7  80 NE13      29.65R HAZE    WCI  -3  
KEMMERER       CLEAR     10   5  79 NE16      29.69R HAZE    WCI  -7  
FORT BRIDGER   LGT SNOW  12  12 100 E14       29.70S WCI  -3          
ROCK SPRINGS   LGT SNOW  10   6  84 NE30G36   29.71R FOG     WCI -12  
DIXON          CLOUDY    21  13  72 NE18      29.68S WCI   6          
RAWLINS        LGT SNOW  16  12  84 NE23G31   29.72S FOG     WCI  -2  
SARATOGA       MOCLDY    19  12  73 S9        29.69R WCI   9          
LARAMIE        PTCLDY    14   8  77 E16       29.73R WCI  -2          
CHEYENNE       FLURRIES  17  15  92 E9        29.83R WCI   6          
TORRINGTON     LGT SNOW  20  17  88 MISG      29.97R FOG              
PINE BLUFFS    FAIR      18  14  86 E10       29.88S WCI   6          

$$